Hall Beach, British Columbia

6:09 AM EDT on March 25, 2017 (GMT -0400)
Hall Beach

Weather History for CYUX - December, 2012

Change the Weather History Date:

Monday, December 31, 2012

  Actual Average Record
Temperature  
Mean Temperature -4 °F -  
Max Temperature 1 °F -18 °F 17 °F (2016)
Min Temperature -9 °F -32 °F -45 °F (2004)
Degree Days  
Heating Degree Days 69    
Moisture  
Dew Point -7 °F    
Average Humidity 86    
Maximum Humidity 92    
Minimum Humidity 77    
Precipitation  
Precipitation 0.00 in 0.01 in - ()
Sea Level Pressure  
Sea Level Pressure 29.95 in    
Wind  
Wind Speed 6 mph ()    
Max Wind Speed 12 mph    
Max Gust Speed -    
Visibility 9.3 miles    
Events Snow    
Averages and records for this station are not official NWS values.
T = Trace of Precipitation, MM = Missing Value Source: Averaged Metar Reports

Daily Weather History Graph

Daily Weather History Graph

Search for Another Location

Airport or City:

Trip Planner

Search our weather history database for the weather conditions in past years. The results will help you decide how hot, cold, wet, or windy it might be!

Date:

Astronomy

Dec. 31, 2012 Rise Set
Actual Time 11:55 AM EST 1:00 PM EST
Civil Twilight 9:53 AM EST 3:03 PM EST
Nautical Twilight 8:20 AM EST 4:36 PM EST
Astronomical Twilight 7:06 AM EST 5:50 PM EST
Moon 7:25 PM EST (12/31) 10:51 AM EST (12/31)
Length of Visible Light 5h 09m
Length of Day
1h 04m
Waning Gibbous, 90% of the Moon is Illuminated
Dec 31
Waning Gibbous
Jan 4
Last Quarter
Jan 11
New
Jan 18
First Quarter
Jan 26
Full

Hourly Weather History & Observations

Time (EST) Temp. Windchill Dew Point Humidity Pressure Visibility Wind Dir Wind Speed Gust Speed Precip Events Conditions
12:00 AM -5.8 °F -18.4 °F -9.4 °F 84% 29.99 in 9.0 mi WNW 5.8 mph - N/A Snow Light Snow
1:00 AM -5.8 °F -16.7 °F -11.2 °F 77% 29.98 in 9.0 mi WNW 4.6 mph - N/A Snow Light Snow
2:00 AM -7.6 °F -18.8 °F -11.2 °F 84% 29.99 in 9.0 mi NW 4.6 mph - N/A Snow Light Snow
2:47 AM -9.4 °F -20.9 °F -13.0 °F 84% 29.98 in 9.0 mi West 4.6 mph - N/A Snow Light Snow
4:00 AM -9.4 °F -20.9 °F -13.0 °F 84% 29.98 in 9.0 mi West 4.6 mph - N/A Snow Light Snow
5:00 AM -9.4 °F -24.3 °F -13.0 °F 84% 29.98 in 9.0 mi West 6.9 mph - N/A Snow Light Snow
6:00 AM -9.4 °F -24.3 °F -14.8 °F 77% 29.98 in 9.0 mi NW 6.9 mph - N/A Snow Light Snow
8:00 AM -9.4 °F -24.3 °F -13.0 °F 84% 29.97 in 12.0 mi NW 6.9 mph - N/A Snow Light Snow
9:00 AM -9.4 °F -26.8 °F -13.0 °F 84% 29.97 in 12.0 mi NW 9.2 mph - N/A Snow Light Snow
10:00 AM -9.4 °F -24.3 °F -13.0 °F 84% 29.96 in 12.0 mi NNW 6.9 mph - N/A Snow Light Snow
11:00 AM -7.6 °F -23.4 °F -13.0 °F 77% 29.96 in 12.0 mi NNW 8.1 mph - N/A Snow Light Snow
12:00 PM -7.6 °F -24.6 °F -11.2 °F 84% 29.96 in 12.0 mi NNW 9.2 mph - N/A Snow Light Snow
1:00 PM -7.6 °F -23.4 °F -11.2 °F 84% 29.95 in 12.0 mi NNW 8.1 mph - N/A Snow Light Snow
2:00 PM -5.8 °F -22.4 °F -9.4 °F 84% 29.95 in 12.0 mi NW 9.2 mph - N/A Snow Light Snow
3:00 PM -4.0 °F -17.8 °F -7.6 °F 85% 29.95 in 12.0 mi NNW 6.9 mph - N/A Snow Light Snow
4:00 PM -4.0 °F -14.6 °F -5.8 °F 92% 29.94 in 12.0 mi NW 4.6 mph - N/A Snow Light Snow
5:00 PM -2.2 °F -16.8 °F -5.8 °F 85% 29.95 in 12.0 mi NW 8.1 mph - N/A Snow Light Snow
6:00 PM -0.4 °F -10.4 °F -4.0 °F 85% 29.95 in 5.0 mi NNW 4.6 mph - N/A Snow Light Snow
7:00 PM 1.4 °F -9.9 °F -0.4 °F 92% 29.94 in 12.0 mi ESE 5.8 mph - N/A Snow Light Snow
8:00 PM 1.4 °F -12.5 °F -0.4 °F 92% 29.94 in 9.0 mi East 8.1 mph - N/A Snow Light Snow
9:00 PM 1.4 °F -11.3 °F -0.4 °F 92% 29.93 in 6.0 mi ENE 6.9 mph - N/A Snow Light Snow
9:06 PM 1.4 °F -14.5 °F -0.4 °F 92% 29.93 in 5.0 mi ENE 10.4 mph - N/A Snow Light Snow
9:10 PM 1.4 °F -11.3 °F -0.4 °F 92% 29.93 in 6.0 mi NE 6.9 mph - N/A Snow Light Snow
10:00 PM 1.4 °F -15.3 °F -2.2 °F 85% 29.93 in 9.0 mi NE 11.5 mph - N/A Snow Light Snow
11:00 PM 1.4 °F -9.9 °F -2.2 °F 85% 29.93 in 6.0 mi NE 5.8 mph - N/A Snow Light Snow
11:01 PM -0.4 °F -12.0 °F -2.2 °F 92% 29.93 in 5.0 mi NE 5.8 mph - N/A Snow Light Snow
11:04 PM -0.4 °F -10.4 °F -2.2 °F 92% 29.93 in 6.0 mi ENE 4.6 mph - N/A Snow Light Snow
11:34 PM -2.2 °F -18.0 °F -4.0 °F 92% 29.93 in 9.0 mi NE 9.2 mph - N/A   Overcast
11:37 PM -2.2 °F -18.0 °F -4.0 °F 92% 29.93 in 9.0 mi NE 9.2 mph - N/A Snow Light Snow